Wind_Speed
20 21 21 21 22 22 24 25 26 27 27 28 28 29 31 31 32 33 33 34 35 36 36 38 40 42 43 46 47 49 50 52 54 55 56 56 58 59 60 61 61 61 60 59
15 16 17 18 19 20 21 22 22 23 23 24 25 26 26 27 28 29 29 30 31 32 33 34 35 37 39 41 43 45 47 49 51 52 53 54 54 56 57 58 59 61 61 60
13 13 14 15 15 16 17 18 18 19 19 19 20 21 21 22 23 24 25 26 27 28 29 30 31 33 34 36 37 40 42 44 47 49 51 52 52 52 54 55 56 58 59 59
10 11 12 12 12 12 12 12 14 15 15 15 15 16 17 18 19 20 21 23 24 25 26 27 28 29 29 29 31 33 35 38 41 44 46 47 48 49 50 51 51 53 56 57
8 9 9 9 9 9 9 9 9 11 11 12 13 14 14 14 15 16 17 18 18 20 21 22 22 23 24 25 25 26 27 30 33 37 40 42 43 45 47 48 48 49 51 52
7 7 7 6 6 6 6 7 8 9 9 10 11 12 12 12 12 12 13 14 15 15 15 17 18 19 19 21 21 22 22 24 27 30 34 38 40 41 43 44 45 46 48 49
7 6 5 5 4 4 4 5 6 7 7 8 8 9 9 10 10 11 12 12 12 12 12 13 13 15 16 18 19 19 20 21 23 26 29 33 35 37 38 40 42 43 45 46
7 6 5 4 3 2 3 3 4 4 4 4 5 6 7 8 8 9 9 9 10 10 11 11 11 11 11 12 13 14 15 17 19 22 24 27 30 31 32 35 38 40 41 43
6 5 4 3 2 2 2 2 2 2 2 2 3 3 4 5 6 7 8 9 9 10 10 10 10 10 9 9 10 11 11 13 15 18 20 22 25 27 28 30 33 35 36 37
6 5 4 4 3 3 2 2 1 0 0 1 2 3 4 6 7 7 8 10 10 10 11 10 10 9 8 8 8 8 9 10 12 14 16 19 21 23 25 27 29 31 33 34
7 6 6 5 4 4 3 3 2 2 2 2 3 5 6 7 7 8 9 10 10 11 11 10 10 9 9 8 9 8 8 9 11 12 14 16 18 21 23 25 27 29 31 33
8 7 7 6 5 5 4 3 3 2 2 3 4 5 6 7 8 9 10 10 10 11 12 11 10 10 10 10 9 8 8 8 9 11 12 14 17 20 23 25 27 29 32 34
8 7 6 6 5 4 3 3 3 3 3 4 5 6 7 8 9 10 10 10 11 12 13 13 12 11 10 10 10 9 9 9 10 12 13 14 16 18 21 23 26 28 31 33
6 5 5 5 4 3 3 4 4 4 5 6 7 7 8 9 11 11 11 11 12 13 13 13 12 11 11 11 11 11 11 11 12 14 15 16 18 20 22 24 26 28 31 33
5 4 4 3 3 3 4 4 5 5 6 7 7 8 10 11 12 12 12 12 13 14 14 13 13 13 13 13 13 13 13 14 15 16 17 19 20 22 24 25 28 30 32 34
4 4 4 4 5 5 5 5 5 6 7 8 9 10 11 12 12 13 13 13 14 14 15 15 15 15 15 15 16 16 16 17 17 18 19 20 22 23 25 26 29 31 33 35
6 5 4 4 6 6 6 7 7 8 9 10 10 11 11 12 13 14 14 15 15 16 17 17 17 17 18 19 19 21 21 21 22 22 22 24 25 26 27 29 30 32 34 37
7 6 5 5 6 7 7 8 9 9 10 11 12 12 13 14 15 16 16 16 17 18 18 19 20 20 21 22 23 23 24 24 25 26 27 28 29 30 31 32 34 36 37 39
8 7 7 7 8 8 9 10 10 11 11 13 13 14 15 16 16 17 17 18 19 20 21 22 22 23 24 25 26 26 26 27 28 29 30 32 33 34 35 36 38 39 41 43
8 9 10 10 11 11 11 12 13 13 13 15 15 16 17 17 18 18 19 20 21 22 23 24 25 25 26 27 27 28 29 30 31 32 33 35 36 37 39 40 42 44 45 47
10 11 11 12 12 12 13 14 14 15 16 16 17 17 18 18 19 20 21 22 23 24 25 26 26 27 28 28 29 30 32 33 34 35 36 37 39 41 43 44 46 47 49 50
13 13 13 14 14 14 15 15 16 16 16 17 18 18 19 20 21 22 23 25 26 27 28 29 29 30 31 31 32 34 35 36 37 38 39 40 42 44 46 47 48 50 51 51
16 16 15 16 16 17 17 17 18 18 18 18 19 19 21 22 24 25 26 27 28 30 31 32 32 33 34 35 36 37 38 39 40 41 42 44 45 46 48 49 50 51 52 52
17 18 18 17 18 18 18 19 19 20 20 20 21 22 23 24 26 27 29 30 31 32 33 34 34 35 36 36 37 38 39 40 41 42 44 45 46 48 49 50 51 51 52 52
20 21 20 20 20 20 20 21 21 21 22 23 23 24 25 27 28 29 31 32 32 33 34 35 36 36 36 37 38 39 40 41 43 44 45 46 47 48 49 50 50 51 52 52
21 22 22 21 22 22 22 23 23 23 24 25 25 26 27 29 30 32 32 33 34 34 35 36 36 37 37 38 39 40 42 43 44 45 45 47 48 49 49 50 50 51 51 51
Wind_Direction
215 219 224 231 236 240 244 246 247 249 252 255 257 259 262 263 264 265 267 268 268 267 268 268 266 265 264 262 260 259 257 255 252 250 249 248 247 246 246 246 246 246 245 243
208 216 222 229 236 241 244 245 248 250 252 254 257 260 263 265 267 267 268 268 268 268 269 269 269 267 266 263 259 258 256 254 251 250 248 248 247 246 246 246 246 245 245 243
205 212 219 226 233 239 241 243 246 247 250 255 259 261 264 267 268 270 271 271 271 272 271 271 271 270 269 264 261 258 255 253 251 249 247 246 245 246 245 245 245 244 244 244
195 205 215 222 227 231 235 239 242 245 248 253 259 263 264 267 271 273 274 275 275 274 273 274 272 270 269 265 263 260 258 254 251 248 246 245 245 245 245 245 245 244 243 243
184 194 201 207 216 223 232 237 241 241 247 254 259 264 266 271 274 276 279 281 281 279 276 277 275 272 269 268 266 262 259 255 252 248 245 243 242 243 243 243 243 244 243 243
167 174 181 192 204 213 224 233 240 245 251 256 259 262 266 275 280 283 288 288 287 286 282 282 281 278 274 271 267 264 261 257 253 248 244 243 243 245 244 244 244 243 243 242
141 149 154 158 173 195 216 232 243 246 252 255 255 262 272 282 288 291 296 296 296 296 294 290 286 283 279 273 268 265 263 257 253 248 245 243 243 245 246 245 244 244 243 243
124 129 136 144 154 177 207 220 230 242 250 255 260 275 286 294 302 305 308 309 306 310 307 302 296 296 288 278 271 267 266 260 253 249 247 245 244 245 246 246 245 244 245 244
113 116 125 132 134 142 157 191 212 234 257 275 289 300 318 325 330 332 331 330 326 322 320 314 312 310 306 291 278 274 271 262 254 251 249 247 246 246 247 247 246 245 246 246
97 98 102 113 114 107 105 115 125 127 46 6 350 348 348 338 337 341 340 341 341 337 332 330 327 324 315 306 294 283 269 262 258 253 248 247 248 249 250 251 250 249 250 249
90 92 96 95 93 89 83 80 73 62 37 19 4 350 347 344 345 347 347 345 347 347 346 342 339 336 332 322 311 299 282 269 265 262 257 253 252 252 252 253 253 253 253 252
83 86 87 83 80 80 75 64 48 28 11 355 354 350 347 346 344 344 348 351 352 349 348 346 339 333 332 329 325 315 300 289 280 274 268 266 266 265 262 260 259 258 256 255
75 77 81 78 74 69 52 35 24 10 355 346 341 338 340 339 340 341 344 346 347 348 348 347 341 334 329 327 326 322 312 301 294 288 279 275 273 271 268 265 263 262 260 258
64 63 62 58 55 42 20 1 353 348 345 339 334 331 331 334 334 335 336 336 337 338 338 340 342 337 333 330 325 322 315 308 300 292 287 284 280 277 273 270 268 266 265 265
50 43 29 20 14 3 347 340 334 332 330 330 328 327 324 329 330 331 331 330 330 329 331 332 332 332 331 329 324 317 312 307 304 298 290 287 285 284 281 279 275 272 271 271
21 11 2 353 349 345 337 332 330 327 328 328 324 321 320 323 324 326 328 328 329 329 328 328 325 323 321 322 320 317 313 310 307 304 300 294 292 290 287 285 281 278 277 275
11 359 351 343 334 332 329 323 323 324 324 323 322 320 320 320 321 321 322 322 322 322 322 321 321 319 317 317 314 312 310 308 306 305 303 300 296 295 292 290 288 285 283 281
3 355 346 335 324 325 323 316 314 315 316 317 318 317 318 318 318 318 318 318 320 319 318 317 318 317 316 315 313 310 308 307 305 303 301 299 297 296 295 293 292 290 288 286
347 341 336 329 322 316 310 310 309 310 312 313 313 313 313 313 313 313 314 314 315 315 315 315 314 314 314 313 312 310 308 307 306 304 303 302 300 298 296 295 294 292 291 289
333 331 328 325 320 318 313 308 306 304 305 308 310 311 311 311 311 310 310 311 312 312 312 312 312 311 311 310 310 309 309 308 306 304 303 302 302 301 299 297 296 295 293 291
320 319 319 319 319 317 315 313 311 306 305 304 305 306 307 308 309 310 310 310 311 311 311 311 310 310 309 309 309 309 308 308 307 305 303 303 302 302 301 300 298 297 296 294
313 311 309 308 310 312 316 316 313 309 306 304 303 303 304 306 307 308 309 310 310 309 309 309 309 309 309 308 308 307 307 307 306 306 305 303 303 303 302 301 300 299 297 296
306 307 305 304 305 306 309 311 310 308 306 305 305 305 305 305 306 306 307 308 308 308 308 308 308 307 307 307 307 307 307 307 307 306 306 305 305 305 304 303 302 302 300 298
300 299 301 302 302 304 306 306 306 305 305 305 305 306 306 305 306 306 305 305 306 306 307 307 307 307 307 307 308 308 308 308 308 307 307 307 307 307 306 306 305 304 303 301
294 293 296 299 301 301 302 302 303 304 304 305 305 305 306 307 306 306 306 306 306 306 307 306 307 307 307 308 308 309 310 310 310 310 309 309 309 309 309 308 308 307 306 304
292 292 293 296 297 298 298 298 299 300 302 304 305 306 307 306 306 306 305 305 305 306 307 307 307 307 308 308 309 310 310 311 311 311 310 310 311 311 310 310 309 309 308 306
Height
5666 5671 5674 5678 5681 5684 5686 5688 5690 5692 5693 5695 5695 5696 5695 5695 5696 5696 5695 5694 5693 5691 5690 5688 5687 5687 5687 5687 5689 5690 5692 5694 5697 5701 5704 5708 5713 5717 5721 5725 5729 5733 5738 5742
5666 5669 5672 5675 5677 5680 5682 5684 5685 5687 5688 5689 5689 5689 5689 5689 5689 5688 5688 5686 5685 5683 5681 5679 5678 5677 5676 5676 5677 5678 5679 5681 5684 5687 5691 5695 5699 5704 5708 5712 5716 5720 5725 5729
5665 5668 5670 5673 5675 5677 5678 5680 5682 5683 5683 5684 5685 5685 5684 5684 5683 5682 5681 5679 5678 5676 5674 5672 5670 5669 5667 5666 5666 5666 5667 5669 5671 5674 5678 5682 5686 5691 5695 5699 5703 5708 5712 5716
5664 5667 5669 5671 5673 5674 5676 5677 5678 5679 5680 5680 5681 5681 5680 5679 5678 5677 5675 5674 5672 5669 5667 5665 5663 5661 5659 5658 5657 5657 5657 5658 5659 5662 5666 5670 5675 5680 5684 5687 5691 5695 5699 5704
5665 5666 5668 5670 5672 5673 5674 5675 5676 5677 5677 5678 5677 5678 5678 5676 5674 5673 5671 5668 5666 5663 5661 5659 5656 5654 5652 5651 5650 5649 5649 5649 5651 5652 5656 5660 5664 5669 5672 5676 5679 5683 5687 5692
5665 5667 5668 5669 5671 5672 5673 5674 5675 5675 5675 5676 5675 5675 5675 5673 5671 5669 5667 5664 5662 5659 5656 5653 5651 5648 5647 5646 5644 5644 5643 5643 5644 5645 5648 5652 5656 5659 5663 5666 5669 5673 5677 5681
5666 5668 5669 5670 5671 5672 5672 5674 5674 5674 5673 5674 5673 5672 5673 5670 5668 5666 5664 5661 5658 5655 5652 5650 5647 5644 5642 5641 5640 5639 5639 5638 5638 5639 5641 5645 5648 5651 5654 5657 5660 5664 5668 5672
5668 5669 5670 5670 5671 5671 5672 5673 5674 5673 5672 5672 5671 5670 5670 5668 5665 5663 5661 5658 5655 5653 5650 5647 5644 5642 5639 5637 5636 5635 5634 5633 5634 5635 5636 5639 5641 5644 5647 5650 5652 5656 5659 5663
5669 5670 5670 5671 5671 5672 5672 5672 5672 5672 5671 5671 5670 5669 5668 5666 5664 5661 5659 5657 5654 5651 5648 5645 5643 5640 5637 5635 5634 5633 5631 5631 5631 5632 5633 5634 5636 5639 5641 5643 5646 5649 5651 5654
5670 5671 5671 5671 5672 5672 5672 5672 5672 5671 5671 5670 5669 5668 5667 5665 5663 5661 5658 5655 5652 5650 5647 5644 5641 5638 5636 5634 5632 5631 5630 5629 5629 5629 5630 5631 5633 5634 5636 5637 5639 5641 5644 5646
5672 5673 5673 5672 5672 5672 5673 5672 5671 5671 5670 5670 5668 5670 5666 5664 5662 5660 5657 5654 5651 5649 5646 5643 5640 5638 5635 5633 5631 5630 5628 5627 5627 5627 5628 5628 5629 5630 5631 5632 5633 5635 5636 5638
5674 5674 5674 5674 5673 5673 5673 5672 5672 5672 5671 5669 5668 5670 5665 5663 5661 5658 5656 5653 5651 5648 5645 5642 5640 5637 5635 5633 5631 5629 5627 5626 5626 5626 5625 5625 5626 5626 5626 5627 5627 5628 5629 5630
5676 5676 5676 5676 5677 5675 5673 5673 5672 5671 5670 5669 5668 5669 5664 5662 5660 5658 5655 5653 5650 5647 5644 5641 5639 5636 5634 5632 5630 5628 5626 5625 5624 5624 5623 5622 5622 5621 5621 5621 5621 5621 5621 5622
5678 5678 5678 5678 5676 5675 5674 5673 5672 5671 5670 5668 5667 5666 5663 5661 5659 5657 5654 5652 5649 5647 5644 5641 5638 5635 5633 5631 5628 5626 5625 5623 5622 5621 5620 5618 5617 5616 5615 5614 5613 5613 5613 5613
5680 5679 5678 5677 5676 5675 5674 5673 5671 5670 5669 5668 5666 5664 5662 5660 5657 5655 5653 5650 5648 5645 5642 5640 5637 5634 5632 5629 5627 5625 5623 5621 5619 5617 5615 5613 5612 5610 5608 5607 5606 5605 5604 5604
5680 5680 5679 5678 5676 5675 5674 5672 5671 5669 5668 5666 5664 5663 5660 5658 5656 5653 5651 5649 5646 5643 5641 5638 5635 5632 5630 5627 5624 5622 5620 5617 5615 5612 5610 5608 5606 5603 5601 5599 5597 5596 5594 5593
5680 5679 5679 5678 5676 5675 5674 5672 5670 5668 5667 5665 5663 5662 5658 5656 5654 5651 5649 5646 5644 5641 5638 5635 5633 5630 5627 5624 5621 5618 5615 5612 5610 5607 5604 5602 5599 5596 5594 5591 5588 5586 5584 5582
5680 5679 5678 5677 5676 5674 5675 5670 5669 5667 5665 5663 5661 5659 5656 5654 5651 5649 5646 5644 5641 5638 5635 5632 5629 5626 5623 5620 5617 5613 5610 5607 5604 5600 5597 5594 5591 5588 5585 5582 5579 5576 5573 5570
5680 5678 5677 5675 5674 5672 5672 5669 5666 5665 5663 5660 5658 5656 5654 5651 5649 5646 5643 5640 5638 5635 5631 5628 5625 5622 5618 5615 5612 5608 5604 5601 5597 5594 5590 5587 5583 5579 5576 5572 5568 5564 5561 5557
5678 5677 5676 5673 5671 5670 5670 5667 5663 5663 5661 5658 5655 5653 5650 5648 5646 5643 5640 5636 5633 5630 5627 5623 5620 5616 5613 5609 5605 5601 5598 5594 5590 5586 5582 5578 5574 5570 5566 5561 5557 5552 5548 5543
5677 5675 5673 5671 5668 5668 5666 5663 5661 5660 5658 5654 5651 5649 5646 5644 5642 5639 5635 5632 5628 5625 5621 5618 5614 5610 5606 5602 5598 5594 5590 5586 5581 5577 5573 5568 5564 5559 5555 5550 5544 5539 5533 5528
5674 5672 5670 5667 5665 5666 5662 5659 5657 5656 5652 5649 5647 5644 5642 5639 5636 5633 5630 5626 5623 5619 5615 5611 5607 5603 5599 5595 5591 5586 5582 5577 5572 5568 5563 5558 5553 5548 5542 5536 5530 5524 5518 5512
5671 5669 5666 5665 5664 5660 5657 5655 5653 5650 5647 5644 5642 5639 5636 5633 5630 5627 5624 5620 5616 5612 5608 5604 5600 5596 5591 5587 5582 5577 5573 5567 5562 5557 5552 5546 5540 5534 5528 5521 5515 5508 5501 5494
5667 5664 5661 5659 5658 5655 5652 5649 5647 5645 5642 5639 5637 5634 5630 5627 5624 5621 5617 5613 5609 5605 5600 5596 5591 5587 5582 5578 5573 5568 5563 5557 5552 5546 5540 5534 5528 5521 5513 5506 5499 5492 5485 5478
5661 5658 5656 5654 5653 5650 5647 5644 5641 5639 5636 5633 5631 5627 5624 5621 5617 5613 5609 5605 5601 5597 5592 5587 5583 5578 5573 5568 5563 5558 5553 5547 5541 5535 5528 5522 5515 5508 5500 5492 5485 5477 5470 5462
5655 5653 5650 5649 5647 5644 5642 5638 5635 5632 5630 5627 5624 5620 5617 5613 5609 5605 5601 5597 5592 5588 5583 5578 5573 5568 5563 5558 5553 5548 5542 5536 5530 5523 5516 5509 5502 5495 5487 5480 5472 5462 5455 5447